Location: Unspecified
(41.5000°N, 0.0000°E)
Time: 12:55:45
(UTC+00:00)

Courier 1B Rocket - Pass Details

Date: 04 July 2019
Orbit: 921 x 1202 km, 28.2° (Epoch: 17 July)

Event Time Altitude Azimuth Distance (km) Brightness Sun altitude
Rises 04:43:54 0° 256° (WSW) 4,003 7.6 1.2°
Reaches altitude 10° 04:49:00 10° 227° (SW) 2,974 6.9 2.0°
Maximum altitude 04:51:27 12° 207° (SSW) 2,798 6.9 2.4°
Drops below altitude 10° 04:53:51 10° 187° (S) 2,900 7.2 2.8°
Sets 04:58:40 0° 158° (SSE) 3,775 8.0 3.6°
